カタログに戻る

COSMOS 2251 DEB

運用中LEO
NORAD 33924·DEBRIS·🇷🇺 Russia

打ち上げ Jun 16, 1993 から Plesetsk Cosmodrome

Loading…

次のパス (今後24時間)

TLE

最新Source: Space-Track

元期: Sep 14, 2026, 06:13 UTC

1 33924U 93036ED  26257.25935321  .00000308  00000-0  30936-3 0  9999
2 33924  73.9132 187.2122 0401975 172.6477 188.0778 13.50528078864580

AllMySatでCOSMOS 2251 DEBをリアルタイム追跡

Download on the App Store